Vertical_Velocity
0 -1 -2 -1 -1 -1 -1 -1 -0 -2 -2 1 -0 -0 -1 -0 -2 -0 -3 -0 -3 -3 -1 -1 -1 1 1 1 6 1 5 -12 -7 -9 -13 26 -0 1 1 -14 16 25 -1 16 -1
-1 -0 -2 -1 -1 -1 -1 -2 -1 -0 -1 -2 -0 -2 0 0 1 1 1 -0 0 -3 3 -2 -1 1 -2 -1 0 3 -1 0 7 4 -8 18 -14 18 2 -12 -8 41 12 9 12
1 -2 -2 -2 -0 -1 -3 -0 -0 -0 -1 -1 -1 -0 -0 1 2 -0 1 -1 -3 -4 -6 -1 2 2 -3 2 4 7 -10 -1 4 9 5 -0 -12 25 1 2 -22 14 16 18 12
-0 -1 -4 -2 -0 1 -4 -3 -0 -0 -1 -0 -1 -3 -1 -2 1 -0 1 -2 -1 -2 -2 -1 -3 1 -1 4 3 -7 8 5 1 -2 13 -2 -14 30 -5 11 12 5 2 4 13
1 2 -6 -1 0 -0 -2 -2 -0 1 1 -0 -1 -2 -0 0 1 0 0 -2 -2 1 -2 1 -1 2 -2 2 -1 -2 5 5 3 -2 -7 6 -22 -10 -20 5 14 10 3 7 33
2 4 -4 -3 0 -2 -2 -2 -1 0 -0 1 -1 0 0 -0 -1 -1 -0 -0 0 -1 -2 -1 1 1 0 -1 -1 1 0 -1 2 -9 4 3 -5 -12 -3 14 -3 5 1 5 5
-2 5 -3 -5 1 -3 -3 0 0 -0 -1 0 -1 2 -1 -1 -0 -1 -1 -0 1 1 -2 -2 3 2 0 11 -1 3 -6 2 -4 -2 -6 17 -6 -29 -19 11 14 -10 4 3 3
-3 4 -4 -3 -0 -2 -3 -1 1 -1 -2 -2 1 1 1 0 -3 -2 -4 -3 -1 1 -1 -0 -2 -1 0 -0 -13 1 -1 -1 -1 -0 -13 14 -5 0 -1 12 11 11 2 1 0
-0 4 -6 1 -1 -4 1 -3 2 -3 -2 -2 0 -0 0 -1 -3 0 -1 -1 -1 -0 -1 2 0 -1 -2 1 3 -3 -7 4 3 -6 -9 15 -3 4 -17 -44 7 4 -2 0 -1
-1 2 -5 1 3 -4 -2 -1 1 -2 -0 -1 0 -0 -1 -4 -1 -2 -2 -2 -2 0 -2 -0 0 -0 -1 0 -3 4 -2 1 -2 -6 -14 8 8 2 -1 -11 -20 1 -2 -6 2
-1 0 -6 2 3 -4 0 -2 -1 -2 -0 1 1 -0 -0 -1 -1 -1 0 -1 -4 -1 -1 -1 -2 -2 4 3 3 8 11 3 -0 2 -3 -6 -5 6 15 2 -17 -7 -30 0 -2
-1 -0 -6 4 2 -5 1 -0 -0 0 -0 2 0 0 -3 -2 0 1 -1 -2 -1 -1 -0 -4 -7 3 1 -0 -0 7 -4 -10 18 5 3 5 -6 3 1 -5 -5 -11 -11 1 10
-1 -1 2 0 1 -0 2 -1 -1 -1 3 0 2 -2 -2 -2 -0 -1 0 0 1 -1 4 -0 -3 0 3 2 2 3 -6 -5 18 5 5 -2 -2 -5 2 -1 -7 -26 -12 -3 6
-5 2 3 -1 -2 -0 -1 -1 -0 -1 1 0 1 -2 -1 -1 -1 -1 2 2 3 0 -1 -1 -1 11 3 -1 11 2 -1 -4 10 2 -1 -3 -1 -15 -7 5 -2 -0 -11 -19 22
-3 4 1 -1 -2 1 -3 -0 -2 0 -5 -3 -3 -2 -2 -1 3 -0 0 2 2 -0 3 -1 -1 -3 1 3 -2 1 3 6 -4 2 -3 -2 3 0 7 -4 -4 -8 1 9 -5
1 2 2 -2 -0 1 -2 -2 -1 0 -6 -1 -3 -2 0 -2 -1 -1 0 2 -1 2 3 -3 -4 -3 -1 1 -3 -2 5 -0 4 8 -2 -0 2 3 -33 -30 -12 1 -14 -17 -0
2 -1 4 -3 -1 -1 -1 -1 2 -2 -0 -2 0 0 -3 -1 -4 1 0 -1 -1 0 -5 -2 -4 -1 1 -1 -2 8 -3 1 4 -2 -2 -1 -2 -5 9 -12 -8 -1 -6 2 12
0 2 -1 1 -1 -1 -2 1 -0 0 -3 -2 -3 -1 -3 -6 -0 1 -1 -1 3 -3 -1 2 -7 3 -3 -2 1 3 4 -3 -0 -2 1 9 -4 6 5 -0 -1 2 10 9 5
2 1 1 -1 2 -2 -2 3 -0 -0 -3 -4 -2 -5 -2 1 12 -1 -2 -1 -1 -1 2 -1 -3 4 7 -0 2 5 -2 0 -1 3 -4 -2 -1 2 -2 -1 -2 6 8 -3 5
3 1 -1 -0 4 -4 1 2 -4 -4 -4 -2 -5 -2 2 -2 8 -1 -3 -1 -2 4 -2 -5 -4 -0 12 6 -2 -4 -4 -5 -2 -3 -1 -1 -1 2 3 1 -0 -12 -2 0 18
1 -1 0 -1 3 -7 3 0 -4 -3 -2 -1 -3 -0 7 4 -2 -3 -2 -0 2 3 4 -1 6 3 5 2 3 3 1 -2 3 -0 -3 -2 1 -4 3 3 2 -2 -9 -6 2
1 1 0 2 -1 -1 4 -1 -2 -2 -0 1 0 -3 2 2 -1 -3 -4 -2 0 0 -4 -2 -3 0 4 0 -1 0 -1 -1 -1 -2 0 2 3 6 2 -3 3 -4 3 -0 -7
0 1 1 2 -4 2 1 -1 -1 -1 -1 -4 -0 -2 -2 1 3 -2 -1 -1 -1 -2 -0 3 1 -2 -0 -4 -0 -0 -5 1 -0 -1 2 -0 -2 6 6 3 4 3 1 -4 -4
1 -1 2 -1 -2 2 0 -1 -0 -1 -2 -2 -1 -3 1 -1 -3 -1 -3 -2 -1 -4 1 3 1 0 -3 0 4 4 5 -1 1 -1 -2 1 2 -2 2 3 7 -1 -1 4 -6
1 1 3 -5 0 2 -0 -1 -0 -1 -2 -2 -2 -3 -2 -2 -1 1 -2 -2 -0 1 -2 -1 -2 -1 3 -8 -3 -1 2 2 -4 -6 -3 1 1 3 1 1 -0 1 0 1 -1
0 2 -1 -2 1 3 -1 -1 -1 0 -2 -4 -3 -2 -2 -1 -2 1 -1 1 0 1 -2 -1 2 0 1 1 0 0 1 -5 -0 -3 -5 -0 2 4 2 2 -1 1 -3 -2 -2
2 1 -2 0 2 1 -0 0 -1 -1 -2 -3 -1 -1 -2 -0 -2 -1 -1 0 -1 -1 -4 0 -1 -3 0 1 -3 -4 0 3 2 -3 -0 1 0 1 0 1 -1 -0 -0 1 1
Height
3108 3103 3097 3091 3084 3078 3073 3067 3062 3058 3056 3055 3054 3053 3052 3052 3052 3052 3052 3053 3051 3050 3049 3049 3050 3050 3051 3052 3054 3057 3057 3051 3054 3058 3061 3069 3065 3079 3082 3083 3089 3096 3100 3104 3109
3103 3099 3093 3087 3080 3074 3068 3064 3058 3054 3052 3052 3050 3050 3049 3048 3049 3048 3049 3048 3047 3047 3046 3046 3046 3046 3046 3048 3049 3051 3050 3051 3052 3056 3057 3066 3067 3070 3074 3081 3083 3092 3097 3098 3104
3100 3095 3089 3083 3076 3070 3065 3060 3055 3050 3050 3048 3047 3047 3046 3046 3046 3045 3045 3045 3044 3043 3043 3042 3043 3042 3042 3045 3046 3045 3045 3049 3049 3054 3055 3058 3057 3058 3066 3075 3079 3086 3091 3096 3097
3097 3091 3086 3079 3072 3066 3060 3056 3051 3048 3047 3045 3044 3043 3043 3043 3045 3043 3043 3041 3039 3039 3039 3039 3039 3039 3038 3040 3042 3041 3041 3043 3045 3049 3052 3055 3054 3051 3058 3071 3076 3079 3084 3090 3096
3093 3087 3083 3075 3067 3062 3057 3052 3047 3046 3043 3042 3041 3040 3040 3040 3041 3040 3039 3037 3036 3035 3035 3035 3035 3036 3035 3036 3038 3036 3037 3039 3043 3046 3047 3051 3050 3053 3055 3065 3070 3075 3077 3085 3093
3089 3083 3079 3072 3064 3059 3054 3048 3044 3043 3041 3040 3039 3039 3039 3039 3037 3037 3035 3033 3032 3031 3030 3031 3032 3032 3032 3033 3034 3032 3034 3034 3038 3044 3045 3047 3049 3054 3051 3058 3063 3068 3073 3080 3085
3086 3080 3074 3068 3061 3055 3050 3045 3042 3040 3039 3038 3038 3037 3038 3038 3035 3034 3032 3031 3030 3028 3027 3028 3029 3029 3029 3029 3028 3029 3030 3031 3033 3039 3041 3044 3043 3039 3046 3054 3056 3065 3071 3075 3081
3082 3076 3070 3063 3057 3051 3046 3043 3040 3038 3037 3036 3036 3036 3035 3035 3033 3031 3029 3028 3027 3026 3025 3025 3025 3025 3025 3025 3025 3026 3027 3027 3028 3033 3037 3042 3036 3040 3043 3047 3054 3063 3068 3072 3076
3078 3073 3066 3060 3053 3048 3043 3041 3038 3036 3035 3035 3036 3035 3035 3033 3031 3029 3027 3026 3025 3024 3024 3023 3023 3022 3022 3022 3022 3022 3022 3022 3026 3027 3030 3033 3034 3036 3037 3040 3048 3059 3065 3069 3074
3074 3069 3062 3057 3050 3044 3041 3039 3036 3034 3034 3033 3034 3036 3034 3032 3028 3026 3024 3024 3023 3022 3022 3022 3021 3020 3019 3019 3018 3019 3019 3019 3019 3022 3028 3030 3036 3038 3041 3046 3047 3057 3062 3065 3071
3071 3065 3058 3054 3046 3041 3039 3037 3037 3035 3033 3033 3033 3032 3030 3029 3026 3024 3022 3022 3021 3022 3021 3020 3020 3018 3017 3016 3016 3017 3015 3014 3016 3021 3023 3027 3031 3038 3038 3040 3041 3050 3058 3065 3068
3066 3061 3055 3050 3043 3039 3037 3034 3032 3033 3032 3031 3032 3031 3029 3028 3025 3023 3022 3021 3021 3020 3019 3020 3017 3016 3014 3014 3014 3014 3012 3014 3014 3018 3025 3027 3026 3030 3035 3040 3044 3048 3054 3060 3067
3061 3056 3051 3045 3040 3037 3035 3032 3030 3029 3031 3031 3031 3030 3028 3026 3023 3021 3020 3018 3018 3017 3017 3016 3016 3014 3013 3013 3012 3013 3013 3013 3010 3015 3021 3025 3026 3029 3033 3039 3045 3046 3050 3057 3066
3057 3052 3047 3042 3040 3036 3033 3029 3028 3027 3029 3031 3030 3029 3027 3023 3022 3019 3018 3018 3016 3014 3014 3014 3014 3014 3012 3011 3010 3011 3013 3012 3011 3015 3022 3027 3030 3032 3035 3036 3041 3043 3048 3051 3060
3052 3047 3044 3038 3036 3033 3032 3028 3027 3027 3031 3030 3028 3027 3025 3024 3021 3019 3016 3014 3014 3013 3014 3014 3012 3011 3010 3009 3010 3012 3013 3013 3014 3018 3019 3027 3031 3030 3034 3036 3040 3042 3048 3054 3057
3047 3043 3040 3037 3033 3031 3028 3027 3026 3029 3029 3027 3026 3025 3024 3021 3020 3017 3015 3014 3013 3012 3012 3010 3010 3010 3008 3009 3010 3011 3012 3013 3014 3016 3021 3025 3027 3026 3026 3026 3035 3039 3043 3052 3057
3042 3040 3037 3033 3032 3029 3027 3026 3027 3026 3029 3028 3026 3025 3024 3022 3019 3017 3015 3013 3013 3013 3011 3009 3007 3006 3006 3008 3009 3011 3012 3014 3017 3022 3023 3025 3030 3024 3024 3029 3037 3042 3049 3056 3062
3038 3036 3033 3030 3028 3026 3025 3025 3024 3026 3026 3027 3026 3024 3023 3021 3019 3017 3015 3013 3013 3014 3010 3007 3005 3003 3004 3007 3009 3010 3013 3013 3015 3019 3021 3025 3027 3026 3026 3028 3035 3042 3050 3056 3060
3034 3032 3029 3027 3025 3025 3024 3022 3023 3025 3025 3025 3025 3024 3024 3022 3020 3017 3016 3014 3013 3013 3014 3009 3005 3004 3005 3006 3011 3011 3013 3015 3015 3016 3016 3025 3025 3025 3026 3028 3032 3039 3045 3052 3058
3029 3028 3026 3025 3023 3023 3022 3021 3021 3022 3023 3025 3025 3025 3023 3023 3020 3018 3016 3015 3014 3015 3014 3012 3009 3006 3007 3009 3012 3013 3016 3017 3015 3018 3024 3025 3025 3025 3026 3030 3034 3038 3042 3050 3058
3025 3024 3023 3022 3022 3021 3020 3019 3020 3021 3023 3026 3025 3025 3024 3023 3021 3019 3019 3017 3016 3017 3016 3014 3014 3013 3010 3012 3014 3017 3017 3018 3017 3020 3024 3031 3027 3026 3028 3030 3033 3036 3043 3047 3053
3021 3021 3020 3019 3022 3019 3019 3019 3020 3021 3023 3025 3025 3024 3024 3023 3022 3020 3019 3018 3018 3018 3018 3017 3016 3015 3016 3017 3017 3018 3019 3020 3021 3024 3024 3023 3026 3027 3029 3032 3034 3036 3041 3045 3049
3016 3017 3016 3017 3019 3018 3017 3018 3019 3020 3022 3024 3024 3025 3024 3024 3023 3021 3020 3020 3020 3020 3020 3020 3019 3018 3019 3022 3020 3021 3022 3022 3023 3025 3026 3028 3025 3024 3026 3030 3034 3037 3041 3043 3047
3013 3014 3013 3015 3015 3016 3016 3018 3019 3020 3021 3022 3024 3024 3024 3025 3024 3023 3022 3022 3022 3023 3021 3021 3021 3021 3024 3024 3025 3025 3026 3026 3025 3025 3026 3028 3025 3024 3026 3029 3032 3036 3038 3041 3044
3009 3010 3012 3012 3011 3013 3015 3017 3018 3019 3021 3022 3024 3023 3024 3025 3024 3023 3023 3022 3023 3023 3023 3023 3023 3023 3024 3024 3024 3025 3026 3028 3028 3030 3031 3029 3028 3027 3027 3028 3030 3033 3036 3039 3041
3007 3008 3009 3009 3010 3011 3013 3015 3017 3018 3020 3021 3022 3022 3023 3025 3025 3025 3024 3024 3024 3024 3023 3023 3024 3023 3023 3024 3025 3026 3027 3029 3031 3032 3032 3033 3031 3031 3030 3030 3032 3034 3036 3038 3040
3005 3007 3009 3008 3008 3010 3012 3014 3015 3017 3020 3021 3022 3022 3023 3026 3025 3025 3024 3024 3024 3024 3024 3024 3023 3023 3025 3025 3025 3027 3027 3030 3032 3033 3034 3033 3034 3034 3035 3034 3034 3035 3037 3038 3040